Погода в Салле

Финляндия     66°49′40″N   28°39′22″E
темп.,
°C
ветер,
м/с
пор.,
м/с
влажн.,
%
обл.,
%
осадки,
мм/ч
давл.,
гПа
погр.,
м
27 ноября, сб
сб2723:00−12св1189100 0.0 100328
02:00−12ссв1191100 0.0 100417
05:00−12ссв1188100 0.0 100623
08:00−13ссв1192100 0.0 100813
11:00−13ссв009584 0.0 101012
14:00−15юв00975 0.0 10119
17:00−16ююв119811 0.0 101211
20:00−16юв11976 0.0 101211
28 ноября, вс
вс2823:00−16юв119711 0.0 101212
02:00−16вюв119799 0.0 101218
05:00−15юв129790 0.0 101233
08:00−16вюв119850 0.0 101218
11:00−16юв119842 0.0 101319
14:00−16юв219856 0.0 101326
17:00−16юв229964 0.0 101337
20:00−16юв229969 0.0 101440
29 ноября, пн
пн2923:00−16юв239898 0.0 101459
02:00−16ююв259783 0.0 101490
05:00−15ююв259775 0.0 101490
08:00−15ююв269791 0.0 101598
11:00−15ююв2696100 0.0 1015111
14:00−14ююв2793100 0.0 1015151
17:00−13юв3893100 0.0 1014200
20:00−13юв2892100 0.0 1013199
30 ноября, вт
вт3023:00−13вюв1294100 0.0 101253
02:00−14в1196100 0.0 101035
05:00−14в2795100 0.0 1008148
08:00−14всв299699 0.0 1005218
11:00−14всв3119084 0.0 1002288
14:00−12св31091100 0.0 999373
17:00−11св41087100 0.0 997596
20:00−11св4985100 0.0 994584
1 декабря, ср
ср123:00−12ссв41094100 0.6 992474
02:00−12ссв3994100 1.8 990458
05:00−12с3994100 1.3 989360
08:00−11с3994100 3.1 988453
11:00−10с3795100 0.9 988438
14:00−9с3895100 1.6 988419
17:00−8ссв2996100 0.8 987517
20:00−8всв41093100 1.4 987929